[[{"header":{"parameterUnit":"m.s-1","parameterCategory":1,"la1":30.2991,"la2":30.254,"lo1":-89.0895,"lo2":-89.0444,"dy":0.0017,"dx":0.0017,"nx":28,"ny":28,"refTime":"2025-04-03T09:00:00:Z","depth":0,"parameterNumber":2,"parameterNumberName":"U-component_of_WINDS"},"data":[0,0,0,0,0,0,0,0,0,0,0,0,0,0,0,0,0,0,0,0,0,0,0,0,0,0,0,0,0,0,0,0,0,0,0,0,0,0,0,0,0,0,0,0,0,0,0,0,0,0,0,0,0,0,0,0,0,0,-5.1298,-5.1299,0,-5.1456,-5.1458,-5.146,-5.1474,-5.1473,-5.1471,-5.1469,-5.1632,-5.1637,-5.1643,0,0,0,0,0,0,0,0,0,0,0,0,0,-5.1008,-5.1013,-5.1297,-5.1299,-5.1301,-5.1456,-5.1458,-5.146,-5.1475,-5.1473,-5.1471,-5.1469,-5.163,-5.1637,-5.1644,0,0,0,0,0,0,0,0,0,0,0,0,0,-5.1147,-5.1015,-5.1297,-5.1327,-5.1332,-5.1455,-5.1458,-5.1461,-5.1475,-5.1473,-5.147,-5.1468,-5.1627,-5.1636,-5.1645,-5.1749,0,0,-5.1672,-5.1675,0,0,0,0,0,0,0,0,-5.1139,-5.1157,-5.1321,-5.1325,-5.133,-5.1443,-5.1415,-5.1558,-5.1476,-5.1421,-5.1469,-5.1466,-5.1571,-5.1584,-5.1619,-5.1757,-5.1764,-5.1672,-5.1678,-5.1682,-5.1684,0,0,0,0,0,0,0,-5.1129,-5.1151,-5.136,-5.1323,-5.1329,-5.1333,-5.135,-5.1442,-5.1508,-5.1425,-5.1427,-5.1445,-5.1573,-5.1611,-5.1623,-5.1766,-5.1672,-5.168,-5.1685,-5.1689,-5.1998,-5.2001,0,0,0,0,0,0,-5.1114,-5.1142,-5.1355,-5.1365,-5.1227,-5.134,-5.1359,-5.1409,-5.1507,-5.1519,-5.1447,-5.1445,-5.1597,-5.1613,-5.1629,-5.1757,-5.1681,-5.169,-5.1695,-5.1995,-5.1999,-5.2002,0,0,0,0,0,0,-5.1108,-5.1133,-5.1349,-5.1254,-5.1282,-5.1348,-5.1404,-5.1414,-5.1452,-5.1524,-5.1535,-5.1474,-5.1596,-5.1617,-5.1719,-5.1763,-5.1694,-5.1702,-5.1992,-5.1996,-5.2,-5.2015,0,0,0,0,0,0,-5.1099,-5.113,-5.117,-5.1255,-5.1287,-5.1436,-5.1407,-5.1419,-5.1467,-5.1466,-5.1552,-5.1563,-5.1595,-5.1706,-5.1728,-5.1774,-5.1709,-5.1988,-5.1994,-5.1999,-5.2011,-5.2019,-5.2026,0,0,0,0,0,-5.1089,-5.1168,-5.1172,-5.1198,-5.1339,-5.1439,-5.1457,-5.1492,-5.147,-5.1511,-5.1558,-5.1561,-5.1756,-5.1717,-5.1741,-5.1791,-5.1985,-5.1992,-5.1998,-5.2007,-5.2017,-5.2026,0,0,0,0,0,0,-5.1087,-5.118,-5.1185,-5.1294,-5.1359,-5.1441,-5.1493,-5.1502,-5.1573,-5.1569,-5.161,-5.163,-5.1731,-5.1772,-5.1726,-5.1897,-5.1868,-5.188,-5.1866,-5.1877,-5.1884,-5.1871,-5.1716,0,0,0,0,0,-5.1099,-5.1172,-5.125,-5.1339,-5.1371,-5.1427,-5.1471,-5.1493,-5.1561,-5.1588,-5.1642,-5.1708,-5.1784,-5.1833,-5.1907,-5.2018,-5.2036,-5.2064,-5.2072,-5.2078,-5.2087,-5.2148,-5.2161,-5.2023,-5.2023,-5.2023,0,0,-5.1125,-5.1185,-5.1228,-5.134,-5.1392,-5.1467,-5.1449,-5.1529,-5.1585,-5.16,-5.17,-5.1742,-5.1819,-5.1926,-5.1976,-5.1963,-5.213,-5.2087,-5.2091,-5.2097,-5.2156,-5.2169,-5.2181,-5.2028,-5.2027,-5.2026,0,0,-5.1209,-5.1263,-5.1342,-5.1395,-5.1475,-5.1512,-5.1531,-5.1613,-5.1641,-5.1742,-5.1755,-5.1823,-5.1953,-5.2007,-5.2051,-5.2159,-5.2164,-5.2182,-5.2222,-5.2281,-5.2292,-5.2302,-5.2339,-5.2352,-5.2192,-5.2192,-5.2192,0,-5.1231,-5.1344,-5.1382,-5.1462,-5.151,-5.1529,-5.1609,-5.1659,-5.1759,-5.1792,-5.1777,-5.1941,-5.1994,-5.2113,-5.2139,-5.2176,-5.2198,-5.2171,-5.2288,-5.2298,-5.2307,-5.2343,-5.2357,-5.2193,-5.2193,-5.2193,-5.2193,0,-5.1367,-5.1445,-5.15,-5.1596,-5.1651,-5.1731,-5.1781,-5.1832,-5.185,-5.1889,-5.1992,-5.2056,-5.2143,-5.2174,-5.2192,-5.2297,-5.2286,-5.2279,-5.225,-5.2321,-5.2355,-5.237,-5.2195,-5.2195,-5.2194,-5.2194,0,0,-5.1452,-5.1568,-5.1588,-5.1631,-5.1721,-5.1783,-5.1864,-5.195,-5.1992,-5.2062,-5.213,-5.2241,-5.2235,-5.2286,-5.2311,-5.2363,-5.2442,-5.2349,-5.2352,-5.2363,-5.256,-5.2563,-5.2578,-5.2448,-5.2451,-5.2453,-5.2553,0,-5.1545,-5.1689,-5.1727,-5.1849,-5.1922,-5.1942,-5.2013,-5.2076,-5.2115,-5.2183,-5.2226,-5.2303,-5.2291,-5.2321,-5.2374,-5.2421,-5.2482,-5.2415,-5.2511,-5.2514,-5.2488,-5.2596,-5.26,-5.2691,-5.2567,-5.2569,-5.2571,0,-5.1673,-5.1744,-5.1874,-5.1955,-5.1987,-5.205,-5.2131,-5.2196,-5.2268,-5.2293,-5.2351,-5.2371,-5.2456,-5.2425,-5.2544,-5.2497,-5.254,-5.2569,-5.2574,-5.2581,-5.2544,-5.2605,-5.2721,-5.2734,-5.2593,-5.2591,-5.2589,0,-5.1719,-5.1849,-5.1943,-5.198,-5.2077,-5.212,-5.2163,-5.2233,-5.2282,-5.2354,-5.2387,-5.2468,-5.2512,-5.2574,-5.2616,-5.259,-5.2731,-5.2703,-5.2753,-5.2752,-5.2779,-5.2776,-5.2901,-5.2811,-5.281,-5.281,-5.281,0,-5.1818,-5.1897,-5.1965,-5.2023,-5.2111,-5.2154,-5.2241,-5.2284,-5.2346,-5.2413,-5.2436,-5.2498,-5.2551,-5.2621,-5.2654,-5.2747,-5.2767,-5.2789,-5.2796,-5.2785,-5.2782,-5.2811,-5.2805,-5.2814,-5.2813,-5.2812,-5.2812,0,-5.1884,-5.1933,-5.2037,-5.2121,-5.2144,-5.2205,-5.2277,-5.2334,-5.2375,-5.2459,-5.2482,-5.2545,-5.2628,-5.2677,-5.2782,-5.2805,-5.2907,-5.2913,-5.2882,-5.2885,-5.2931,-5.2925,-5.3077,-5.3098,-5.2995,-5.2996,-5.2997,0,-5.1943,-5.2003,-5.2094,-5.214,-5.2183,-5.2258,-5.2308,-5.2354,-5.2405,-5.2493,-5.2539,-5.2624,-5.2694,-5.2826,-5.2882,-5.2962,-5.2969,-5.3017,-5.2981,-5.2968,-5.2967,-5.2962,-5.2968,-5.3022,-5.3022,-5.3023,-5.3024,0,-5.2041,-5.2063,-5.2134,-5.2215,-5.2274,-5.234,-5.2406,-5.2442,-5.2499,-5.2556,-5.2641,-5.2695,-5.2803,-5.2886,-5.2972,-5.3016,-5.3029,-5.3035,-5.3051,-5.3038,-5.3017,-5.3028,-5.2896,-5.3031,-5.303,-5.3029,-5.3029,-5.3029,-5.2104,-5.2159,-5.2231,-5.231,-5.2364,-5.2425,-5.2482,-5.2531,-5.2602,-5.2693,-5.2716,-5.2805,-5.2877,-5.2994,-5.304,-5.3111,-5.3103,-5.3126,-5.3131,-5.3135,-5.3135,-5.3008,-5.3127,-5.3127,-5.3127,-5.3127,-5.3127,0,-5.2202,-5.225,-5.2322,-5.2413,-5.2475,-5.2483,-5.2556,-5.2608,-5.2686,-5.2752,-5.2821,-5.2919,-5.3,-5.3063,-5.3147,-5.3191,-5.32,-5.3212,-5.3208,-5.3217,-5.3139,-5.3116,-5.3204,-5.3204,-5.3204,-5.3204,-5.3204,-5.3204,-5.226,-5.2352,-5.2383,-5.2503,-5.255,-5.2637,-5.2678,-5.2735,-5.2787,-5.2896,-5.2963,-5.3004,-5.3069,-5.3158,-5.3233,-5.325,-5.3279,-5.329,-5.3307,-5.3232,-5.3223,-5.3215,-5.3194,-5.3296,-5.3296,-5.3379,-5.338,-5.3381]},{"header":{"parameterUnit":"m.s-1","parameterCategory":1,"la1":30.2991,"la2":30.254,"lo1":-89.0895,"lo2":-89.0444,"dy":0.0017,"dx":0.0017,"nx":28,"ny":28,"refTime":"2025-04-03T09:00:00:Z","depth":0,"parameterNumber":3,"parameterNumberName":"V-component_of_WINDS"},"data":[0,0,0,0,0,0,0,0,0,0,0,0,0,0,0,0,0,0,0,0,0,0,0,0,0,0,0,0,0,0,0,0,0,0,0,0,0,0,0,0,0,0,0,0,0,0,0,0,0,0,0,0,0,0,0,0,0,0,4.9252,4.9254,0,4.9397,4.9399,4.94,4.9408,4.9406,4.9404,4.9403,4.9549,4.9554,4.956,0,0,0,0,0,0,0,0,0,0,0,0,0,4.898,4.8985,4.9252,4.9254,4.9256,4.9397,4.9399,4.9401,4.9408,4.9406,4.9404,4.9402,4.9547,4.9554,4.956,0,0,0,0,0,0,0,0,0,0,0,0,0,4.9109,4.8987,4.9252,4.9276,4.928,4.9397,4.9399,4.9401,4.9408,4.9406,4.9403,4.9401,4.9545,4.9553,4.9561,4.9662,0,0,4.9586,4.959,0,0,0,0,0,0,0,0,4.9102,4.9119,4.9271,4.9275,4.9279,4.9382,4.9357,4.9489,4.9409,4.9359,4.9403,4.94,4.9495,4.9507,4.954,4.9669,4.9675,4.9587,4.9592,4.9595,4.9598,0,0,0,0,0,0,0,4.9093,4.9113,4.9309,4.9273,4.9278,4.928,4.9295,4.9382,4.944,4.9364,4.9364,4.9382,4.9497,4.9532,4.9544,4.9678,4.9587,4.9594,4.9599,4.9602,4.99,4.9903,0,0,0,0,0,0,4.9079,4.9105,4.9305,4.9314,4.9182,4.9287,4.9304,4.9351,4.9439,4.945,4.9384,4.9381,4.9519,4.9534,4.9549,4.9675,4.9595,4.9603,4.9608,4.9897,4.9901,4.9904,0,0,0,0,0,0,4.9074,4.9097,4.9299,4.921,4.9236,4.9294,4.9347,4.9355,4.9391,4.9454,4.9464,4.9409,4.9518,4.9537,4.9635,4.968,4.9607,4.9614,4.9894,4.9898,4.9903,4.9928,0,0,0,0,0,0,4.9066,4.9095,4.9134,4.9211,4.9241,4.9383,4.935,4.936,4.9405,4.9404,4.9481,4.9491,4.9517,4.9623,4.9643,4.969,4.9621,4.989,4.9896,4.9901,4.9923,4.9933,4.9941,0,0,0,0,0,4.9056,4.9134,4.9136,4.916,4.9291,4.9385,4.9402,4.9432,4.9409,4.9449,4.949,4.9488,4.9672,4.9633,4.9656,4.9706,4.9887,4.9894,4.9901,4.9919,4.9931,4.994,0,0,0,0,0,0,4.906,4.9144,4.9147,4.9253,4.9312,4.9386,4.9438,4.9443,4.9509,4.9505,4.9538,4.9556,4.9653,4.9689,4.9644,4.981,4.9777,4.9789,4.9783,4.9795,4.9803,4.9793,4.9627,0,0,0,0,0,4.9073,4.9143,4.9213,4.9299,4.9329,4.9378,4.9421,4.9439,4.9501,4.9526,4.9574,4.9634,4.9706,4.9752,4.9821,4.9928,4.9946,4.9975,4.9983,4.999,5.0,5.0062,5.0076,4.9926,4.9926,4.9926,0,0,4.91,4.9156,4.9198,4.9302,4.935,4.9422,4.9399,4.9476,4.953,4.9537,4.9634,4.9671,4.974,4.9844,4.9892,4.9877,5.0046,4.9999,5.0004,5.001,5.007,5.0085,5.0097,4.9931,4.993,4.9929,0,0,4.9188,4.9236,4.9315,4.9364,4.9438,4.9471,4.9489,4.9564,4.959,4.9687,4.9695,4.9759,4.9881,4.9931,4.9972,5.0082,5.0084,5.0104,5.015,5.021,5.0221,5.0232,5.0273,5.0287,5.0113,5.0113,5.0113,0,4.9213,4.9323,4.9354,4.9433,4.9479,4.949,4.957,4.9616,4.9708,4.974,4.9722,4.9877,4.9925,5.0042,5.0069,5.0101,5.0125,5.0095,5.0217,5.0228,5.0239,5.0278,5.0293,5.0115,5.0115,5.0115,5.0115,0,4.9351,4.9427,4.9482,4.9573,4.9625,4.9703,4.9747,4.9796,4.981,4.9845,4.9945,5.0002,5.0085,5.0113,5.0127,5.0233,5.0222,5.021,5.0178,5.0255,5.0292,5.0308,5.0118,5.0118,5.0117,5.0116,0,0,4.9445,4.9553,4.9573,4.9615,4.9699,4.9758,4.9838,4.992,4.9962,5.0025,5.0094,5.0198,5.0189,5.0236,5.0256,5.0308,5.0394,5.029,5.0293,5.0309,5.0517,5.0526,5.0543,5.0396,5.0399,5.0401,5.0512,0,4.9543,4.9686,4.9718,4.9841,4.9913,4.9926,4.9995,5.0054,5.0089,5.0155,5.0193,5.0268,5.0249,5.0278,5.033,5.0373,5.0437,5.0365,5.0461,5.0464,5.0444,5.0563,5.0572,5.0674,5.0527,5.0529,5.0531,0,4.9677,4.9746,4.9877,4.9953,4.9984,5.0046,5.0125,5.0188,5.0256,5.0277,5.0331,5.0346,5.043,5.0393,5.0511,5.0461,5.0502,5.0529,5.0534,5.0545,5.0503,5.0578,5.0707,5.0723,5.0554,5.0552,5.0551,0,4.9734,4.9859,4.9955,4.999,5.0081,5.0125,5.0165,5.023,5.0278,5.0347,5.0378,5.0455,5.0498,5.0557,5.0593,5.0562,5.0708,5.0673,5.0729,5.0729,5.076,5.0758,5.0899,5.0784,5.0784,5.0784,5.0783,0,4.9842,4.9922,4.9982,5.0041,5.0132,5.0167,5.0256,5.0295,5.0354,5.0421,5.0436,5.0498,5.0541,5.0609,5.0637,5.0732,5.075,5.0771,5.0777,5.077,5.0768,5.0798,5.0793,5.0788,5.0787,5.0786,5.0785,0,4.9922,4.9965,5.007,5.0148,5.017,5.0234,5.0301,5.0358,5.0394,5.0479,5.0501,5.0557,5.0639,5.068,5.0781,5.0801,5.0907,5.0909,5.0885,5.0888,5.0943,5.0938,5.1109,5.1134,5.1001,5.1002,5.1003,0,4.9988,5.005,5.0136,5.0183,5.0224,5.0298,5.0348,5.0386,5.0437,5.052,5.0568,5.0651,5.072,5.085,5.09,5.0978,5.0983,5.1038,5.0994,5.0986,5.0986,5.0982,5.099,5.1045,5.1047,5.1048,5.1048,0,5.0102,5.0121,5.0193,5.0273,5.0332,5.0397,5.046,5.0497,5.0545,5.0602,5.0687,5.074,5.0845,5.0928,5.101,5.1051,5.1059,5.1062,5.1079,5.1073,5.1058,5.1069,5.0908,5.1058,5.1057,5.1056,5.1056,5.1055,5.0179,5.0236,5.0306,5.0386,5.0438,5.0497,5.0556,5.0601,5.0672,5.0761,5.0779,5.0869,5.0937,5.1049,5.1093,5.1164,5.1152,5.1177,5.1184,5.119,5.1193,5.1045,5.1179,5.1179,5.1179,5.1178,5.1178,0,5.0296,5.0342,5.0415,5.0504,5.0568,5.057,5.0641,5.0693,5.0773,5.0836,5.0904,5.1002,5.1083,5.114,5.1223,5.1269,5.1275,5.129,5.1287,5.1297,5.1198,5.1176,5.1284,5.1284,5.1284,5.1284,5.1284,5.1284,5.0364,5.0461,5.0489,5.0613,5.0658,5.0748,5.0789,5.0844,5.0895,5.1005,5.1073,5.1109,5.1171,5.1258,5.1333,5.1348,5.1378,5.1393,5.1408,5.1315,5.1304,5.1293,5.1272,5.1399,5.1399,5.1502,5.1502,5.1503]}]]